TimeEDT,TemperatureF,Dew PointF,Humidity,Sea Level PressureIn,VisibilityMPH,Wind Direction,Wind SpeedMPH,Gust SpeedMPH,PrecipitationIn,Events,Conditions,WindDirDegrees,DateUTC
12:37 AM,62.6,62.6,100,30.04,3.0,WNW,4.6,-,N/A,,Overcast,290,2012-10-05 04:37:00
12:51 AM,63.0,62.1,97,30.04,2.5,WNW,3.5,-,N/A,,Overcast,290,2012-10-05 04:51:00
1:33 AM,62.6,62.6,100,30.03,3.0,SW,3.5,-,N/A,,Overcast,220,2012-10-05 05:33:00
1:51 AM,63.0,62.1,97,30.03,2.5,Calm,Calm,-,N/A,,Overcast,0,2012-10-05 05:51:00
2:12 AM,62.6,62.6,100,30.03,1.8,Calm,Calm,-,N/A,,Overcast,0,2012-10-05 06:12:00
2:29 AM,62.6,62.6,100,30.02,2.0,West,4.6,-,N/A,,Overcast,280,2012-10-05 06:29:00
2:51 AM,63.0,62.1,97,30.02,3.0,WNW,4.6,-,N/A,,Overcast,290,2012-10-05 06:51:00
3:22 AM,62.6,60.8,94,30.02,3.0,Calm,Calm,-,N/A,Fog,Patches of Fog,0,2012-10-05 07:22:00
3:51 AM,62.1,60.1,93,30.01,4.0,Calm,Calm,-,N/A,Fog,Patches of Fog,0,2012-10-05 07:51:00
4:11 AM,59.0,59.0,100,30.02,2.5,Calm,Calm,-,N/A,,Mostly Cloudy,0,2012-10-05 08:11:00
4:16 AM,60.8,59.0,94,30.02,1.8,Calm,Calm,-,N/A,,Scattered Clouds,0,2012-10-05 08:16:00
4:28 AM,59.0,59.0,100,30.01,0.8,Calm,Calm,-,N/A,,Partly Cloudy,0,2012-10-05 08:28:00
4:31 AM,59.0,57.2,94,30.01,0.2,Calm,Calm,-,N/A,Fog,Fog,0,2012-10-05 08:31:00
4:51 AM,57.0,55.9,96,30.02,0.2,Calm,Calm,-,N/A,Fog,Fog,0,2012-10-05 08:51:00
5:33 AM,55.4,55.4,100,30.02,0.8,Calm,Calm,-,N/A,,Scattered Clouds,0,2012-10-05 09:33:00
5:49 AM,55.4,55.4,100,30.02,0.5,Calm,Calm,-,N/A,Fog,Fog,0,2012-10-05 09:49:00
5:51 AM,55.0,55.0,100,30.02,0.5,Calm,Calm,-,N/A,Fog,Fog,0,2012-10-05 09:51:00
6:08 AM,55.4,55.4,100,30.02,0.2,Calm,Calm,-,N/A,Fog,Fog,0,2012-10-05 10:08:00
6:46 AM,55.4,55.4,100,30.03,0.5,Calm,Calm,-,N/A,Fog,Fog,0,2012-10-05 10:46:00
6:51 AM,54.0,54.0,100,30.04,0.5,Calm,Calm,-,N/A,Fog,Fog,0,2012-10-05 10:51:00
7:06 AM,55.4,55.4,100,30.04,0.1,Calm,Calm,-,N/A,Fog,Fog,0,2012-10-05 11:06:00
7:25 AM,55.4,55.4,100,30.04,0.2,Calm,Calm,-,N/A,Fog,Fog,0,2012-10-05 11:25:00
7:46 AM,57.2,57.2,100,30.04,10.0,Calm,Calm,-,N/A,Fog,Patches of Fog,0,2012-10-05 11:46:00
7:51 AM,57.9,57.9,100,30.05,10.0,Calm,Calm,-,N/A,Fog,Patches of Fog,0,2012-10-05 11:51:00
8:51 AM,61.0,57.9,90,30.04,10.0,West,4.6,-,N/A,,Clear,260,2012-10-05 12:51:00
9:51 AM,68.0,60.1,76,30.03,10.0,WSW,3.5,-,N/A,,Clear,250,2012-10-05 13:51:00
10:51 AM,72.0,60.1,66,30.02,10.0,WNW,4.6,-,N/A,,Partly Cloudy,290,2012-10-05 14:51:00
11:51 AM,73.0,55.0,53,30.01,10.0,West,10.4,-,N/A,,Scattered Clouds,280,2012-10-05 15:51:00
12:51 PM,75.0,53.1,46,30.00,10.0,NW,12.7,19.6,N/A,,Partly Cloudy,310,2012-10-05 16:51:00
1:51 PM,75.9,54.0,46,29.97,10.0,WNW,9.2,-,N/A,,Scattered Clouds,300,2012-10-05 17:51:00
2:51 PM,77.0,53.1,43,29.96,10.0,West,11.5,-,N/A,,Scattered Clouds,280,2012-10-05 18:51:00
3:51 PM,77.0,52.0,42,29.94,10.0,West,9.2,-,N/A,,Scattered Clouds,280,2012-10-05 19:51:00
4:51 PM,77.0,53.1,43,29.94,10.0,WNW,4.6,-,N/A,,Clear,290,2012-10-05 20:51:00
5:51 PM,73.0,54.0,51,29.95,10.0,SW,4.6,-,N/A,,Clear,220,2012-10-05 21:51:00
6:51 PM,64.9,57.0,75,29.96,10.0,SW,3.5,-,N/A,,Partly Cloudy,230,2012-10-05 22:51:00
7:51 PM,64.9,57.9,78,29.96,10.0,SW,4.6,-,N/A,,Partly Cloudy,230,2012-10-05 23:51:00
8:51 PM,64.0,57.9,80,29.96,10.0,WSW,4.6,-,N/A,,Partly Cloudy,250,2012-10-06 00:51:00
9:51 PM,61.0,57.0,87,29.96,10.0,Calm,Calm,-,N/A,,Clear,0,2012-10-06 01:51:00
10:51 PM,60.1,57.0,90,29.95,10.0,SW,3.5,-,N/A,,Clear,230,2012-10-06 02:51:00
11:51 PM,60.1,57.0,90,29.94,10.0,Calm,Calm,-,N/A,,Clear,0,2012-10-06 03:51:00